Temperature
28 24 24 24 25 26 25 25 25 26 27 25 24 23 23 24 23 22 22 21 21 21 21 21 21 21 20 20 20 19 19 19 19 19 19 18 18 18 18 18 18 18 18 18
25 25 26 27 27 27 26 25 26 26 27 26 24 24 23 23 23 22 22 21 21 21 21 20 20 20 20 20 20 19 19 19 19 19 18 18 18 18 18 18 18 18 18 18
25 26 28 28 28 27 27 26 26 26 26 25 24 23 23 23 23 23 22 21 21 21 21 20 20 20 20 20 20 19 19 19 19 19 18 18 18 18 18 18 18 18 18 18
26 27 28 28 28 28 26 28 28 27 24 23 24 22 22 22 22 22 22 22 21 21 21 20 20 20 20 20 19 19 19 19 19 19 18 18 18 18 18 18 18 18 18 18
26 28 28 28 28 29 27 28 27 26 24 22 23 22 21 22 21 21 22 22 21 21 21 20 20 20 20 20 19 19 19 19 19 18 18 18 18 18 18 18 18 18 17 17
27 28 29 28 29 29 28 26 25 22 21 22 22 22 21 21 21 21 22 22 22 21 21 21 20 20 20 19 19 19 19 19 19 18 18 18 18 18 18 18 18 18 17 17
27 27 28 29 28 27 26 23 22 22 21 21 21 21 21 22 22 22 22 22 21 21 21 21 20 20 19 19 19 19 19 19 18 18 18 18 18 18 18 18 17 17 17 17
25 25 27 28 28 26 26 23 22 23 22 21 21 21 22 23 23 23 22 22 21 21 21 20 20 20 20 19 19 19 19 19 19 18 18 18 18 17 17 17 17 17 17 17
25 25 28 29 29 28 27 24 22 21 21 21 21 22 22 23 22 22 22 22 21 21 21 21 20 20 20 19 19 19 19 19 18 18 18 18 17 17 17 17 17 17 17 17
25 25 26 27 28 27 26 24 21 21 21 21 21 21 20 21 21 21 21 21 21 21 21 21 21 20 20 19 19 19 19 19 18 18 18 17 17 17 17 17 17 17 17 17
25 24 25 26 27 26 26 24 22 19 20 20 21 21 22 21 21 21 21 22 21 21 21 21 20 20 20 19 19 19 18 18 18 18 18 18 17 17 17 17 16 16 16 16
24 22 22 24 25 26 26 24 22 21 21 20 20 21 23 22 22 22 22 22 22 22 21 21 21 20 20 19 19 19 18 18 18 18 17 17 17 17 17 16 16 16 16 16
24 22 22 23 23 24 25 25 23 20 19 19 20 21 22 22 22 22 22 21 22 22 21 21 20 20 19 19 19 18 18 18 18 17 17 17 17 17 16 16 16 16 16 16
24 21 22 23 22 24 25 25 24 21 20 20 21 21 21 21 21 21 22 22 22 21 21 21 20 20 19 19 19 18 18 18 17 17 17 17 17 16 16 16 16 15 15 15
22 22 23 23 24 25 25 25 25 23 22 21 21 21 21 21 21 21 22 22 21 21 21 20 20 20 19 19 18 18 18 18 17 17 17 17 16 16 16 16 16 15 15 15
21 22 23 23 25 25 25 25 25 24 24 22 22 21 21 21 22 21 21 21 20 20 20 20 20 19 19 19 18 18 18 17 17 17 16 16 16 16 16 15 15 15 15 15
20 21 21 21 23 23 23 24 24 23 23 22 21 21 20 20 21 21 21 21 20 20 20 20 20 19 19 18 18 18 17 17 17 16 16 16 16 16 15 15 15 15 14 14
20 19 18 19 22 23 22 23 24 23 22 22 21 21 21 21 21 21 21 21 20 20 20 20 20 19 19 18 18 18 17 17 17 16 16 16 15 15 15 15 14 14 14 14
20 19 18 18 20 21 23 23 23 22 21 21 21 20 21 21 20 20 21 21 21 20 20 19 19 19 19 18 18 17 17 17 16 16 16 15 15 15 15 14 14 14 14 14
19 18 19 19 21 21 22 23 24 22 20 21 20 20 20 20 18 18 20 20 20 20 19 19 19 19 18 18 17 17 17 16 16 16 15 15 15 15 14 14 14 14 13 13
20 19 19 19 20 20 21 23 23 21 20 21 21 20 20 19 19 20 20 20 19 19 19 19 18 18 18 17 17 17 16 16 16 15 15 15 15 14 14 14 14 13 13 13
18 18 18 18 19 19 21 22 20 20 21 21 21 21 20 20 20 20 19 19 19 19 18 18 18 17 17 17 16 16 16 16 15 15 15 15 14 14 14 14 14 13 13 13
18 17 17 17 18 20 22 22 22 22 21 21 21 21 21 20 19 19 19 19 18 18 18 18 17 17 16 16 16 16 15 15 15 15 14 14 14 14 14 14 13 13 13 13
18 18 17 17 18 20 21 22 22 22 22 22 22 21 21 20 19 19 19 18 18 18 17 17 17 16 16 16 15 15 15 15 14 14 14 14 14 13 13 13 13 13 13 13
18 18 17 17 18 20 21 21 22 22 21 21 21 21 20 20 19 19 18 18 18 17 17 16 16 16 16 15 15 15 15 14 14 14 13 13 13 13 13 13 13 13 13 12
17 17 17 17 18 18 20 21 21 21 21 20 20 20 20 20 19 19 18 18 17 17 16 16 16 16 15 15 15 15 14 14 14 13 13 13 13 13 13 13 13 12 12 12
Wind_Speed
2 3 3 7 8 6 4 2 4 5 4 3 5 6 6 7 8 8 7 7 7 7 7 7 7 7 6 4 4 3 2 1 1 1 1 1 0 0 0 1 2 2 2 2
4 4 9 8 7 3 3 2 4 3 2 4 6 3 4 6 8 9 10 9 8 6 6 6 6 6 6 5 4 3 2 1 1 1 1 2 1 1 0 0 0 1 1 1
5 8 6 5 6 4 4 4 4 3 2 5 6 3 2 2 3 5 7 8 8 9 9 8 7 6 5 5 4 3 2 2 1 0 0 1 2 2 2 2 1 1 0 1
6 7 5 4 5 3 4 5 4 3 2 0 3 1 3 3 3 4 6 7 8 8 8 7 7 6 6 5 4 3 2 2 1 1 2 2 2 1 0 0 0 1 1 1
6 5 3 4 5 3 5 2 2 2 3 2 2 3 4 2 3 5 6 8 7 8 9 8 8 7 6 5 5 3 2 1 1 2 2 2 2 1 1 1 2 2 2 2
7 6 3 4 4 2 2 4 6 5 5 2 2 2 4 4 6 5 5 6 7 7 7 9 7 6 4 3 4 4 3 1 1 2 2 3 2 2 2 2 1 1 2 2
6 7 4 1 2 4 5 6 4 5 4 3 2 2 6 5 4 6 8 8 7 7 7 9 8 6 4 3 3 4 4 2 2 2 2 2 3 3 3 2 1 1 1 1
1 7 4 2 4 4 2 8 7 4 3 3 2 2 5 3 3 4 7 8 8 7 7 8 9 8 5 4 4 5 4 3 2 2 1 2 2 2 2 1 1 1 0 0
4 5 6 4 2 4 2 2 7 7 2 1 2 2 3 2 3 4 5 6 6 8 8 9 8 8 7 6 5 5 4 3 3 2 2 2 2 2 2 1 1 0 1 1
6 3 6 4 3 3 5 5 6 5 3 1 2 3 3 4 4 4 5 6 6 6 8 7 7 7 7 6 5 5 4 4 3 2 2 2 2 2 2 2 1 1 1 1
4 4 6 4 1 1 3 3 4 4 5 6 3 6 6 9 8 7 7 7 8 8 8 8 7 7 7 6 5 5 4 4 3 3 3 3 2 2 2 1 0 0 1 1
3 5 2 6 5 3 4 4 6 4 2 4 4 6 3 9 8 8 7 6 7 8 8 7 7 7 6 6 5 5 5 4 3 3 3 2 2 2 1 1 1 0 0 1
4 6 2 7 7 5 2 1 4 6 4 4 4 5 1 6 6 6 7 7 7 7 7 6 6 6 6 5 5 5 4 4 4 4 3 2 2 1 1 0 0 0 0 1
5 5 6 7 7 4 3 3 2 6 4 3 5 5 3 5 6 6 7 7 7 7 6 6 6 6 6 5 5 5 4 4 4 4 4 2 2 1 1 0 0 0 1 1
6 3 2 3 3 1 3 3 1 3 6 7 7 7 9 9 9 8 7 8 8 7 7 7 6 6 6 5 4 4 4 3 4 4 3 2 1 1 1 1 0 1 0 1
4 3 2 3 3 4 4 2 1 1 2 5 6 3 5 5 6 6 7 9 9 8 8 7 7 6 6 5 5 5 4 4 4 4 3 2 1 1 1 1 1 0 1 1
2 4 3 2 4 4 4 3 2 2 3 6 6 6 7 7 7 8 8 7 8 9 8 8 7 6 6 5 6 5 5 4 4 4 3 2 2 1 1 0 1 1 1 0
5 3 3 1 4 1 6 3 3 5 4 3 4 6 10 9 7 5 6 7 7 7 7 7 6 6 5 5 5 5 4 4 4 3 2 1 2 1 1 1 1 1 1 1
6 6 4 3 2 3 4 4 0 4 3 2 6 8 7 8 8 4 2 5 6 6 6 6 6 6 5 5 5 5 4 3 3 3 2 2 2 1 1 2 2 1 1 1
5 6 5 4 3 4 5 5 1 7 2 1 5 8 7 7 4 2 2 5 6 5 5 5 5 5 5 4 5 6 4 3 2 3 3 2 2 2 2 2 2 1 1 1
4 4 4 4 3 4 5 5 3 4 5 4 6 8 8 5 5 5 4 5 5 5 4 5 5 4 3 4 5 5 4 2 2 2 2 2 2 3 2 2 1 1 1 1
4 3 2 3 3 5 5 2 3 5 4 5 6 7 7 6 5 5 6 6 6 5 4 5 5 3 2 3 5 4 3 3 2 2 2 1 2 2 1 1 1 1 1 1
2 5 5 5 6 6 3 3 4 6 5 4 6 7 9 8 6 6 6 6 5 5 4 4 5 4 2 2 4 4 3 2 2 2 1 2 2 2 1 1 1 1 1 1
3 1 3 1 2 0 2 3 4 5 6 4 6 8 8 8 7 6 6 5 5 4 4 4 5 4 1 1 2 3 3 2 2 2 2 2 2 2 1 1 1 1 1 1
4 1 1 1 2 1 1 2 3 4 6 6 6 6 8 9 7 6 6 5 4 4 3 4 4 4 2 2 2 2 2 2 2 2 1 1 1 2 1 1 2 2 3 3
3 3 4 6 6 4 4 3 3 5 5 6 5 4 5 7 8 6 6 5 5 4 4 4 3 3 2 2 1 1 2 2 2 1 2 2 1 1 1 1 2 3 3 3
Wind_Direction
284 92 224 232 215 210 219 233 268 261 211 120 139 141 162 161 151 147 151 154 156 165 163 153 147 142 130 126 126 122 114 107 124 128 133 129 107 345 356 216 196 190 196 187
5 265 238 229 233 235 222 240 271 268 204 113 119 121 161 164 167 168 164 168 168 161 160 161 154 145 147 151 154 152 155 145 153 197 197 180 178 200 166 333 281 172 177 178
226 246 250 242 258 247 251 218 229 223 20 74 104 40 44 164 146 155 168 173 173 170 174 171 165 162 158 163 171 171 176 182 206 210 87 64 56 37 27 14 350 320 172 166
256 258 257 249 253 233 255 238 208 179 113 3 114 153 255 197 176 176 184 187 182 177 175 174 169 167 172 178 178 172 180 183 192 142 115 116 123 130 247 257 6 359 14 53
273 274 269 244 243 230 225 206 131 149 118 63 28 118 271 187 194 205 198 195 187 182 180 178 176 169 169 169 166 168 158 158 131 120 133 126 118 129 86 64 56 30 10 20
264 273 240 221 242 227 156 50 34 49 72 49 282 145 260 223 204 195 192 186 176 166 169 167 169 155 151 154 159 151 136 146 140 127 131 135 135 124 99 77 62 24 9 11
302 299 281 241 329 328 85 86 29 4 21 256 284 127 247 243 195 182 178 174 164 156 151 154 158 159 157 157 169 151 146 164 164 148 155 151 153 146 140 139 124 76 21 1
256 300 284 244 187 203 194 134 152 187 218 274 343 207 255 245 183 163 162 163 160 154 155 156 156 153 150 156 165 155 161 167 159 147 160 162 152 150 152 145 135 131 209 278
186 258 278 272 242 156 154 145 160 135 118 66 309 288 320 47 116 123 127 140 156 164 165 165 160 156 157 157 152 160 169 163 153 152 135 126 129 128 124 116 103 325 304 312
165 238 285 293 24 14 139 145 83 102 141 196 285 263 224 223 197 160 151 154 165 170 166 160 158 162 165 164 159 151 156 171 158 140 141 130 112 113 106 93 77 45 325 323
146 168 293 347 345 233 60 67 98 115 147 149 201 264 212 193 188 172 175 171 161 158 163 160 157 161 162 155 150 150 150 138 130 126 117 115 121 133 121 117 138 195 299 328
149 134 253 272 266 186 148 155 137 143 223 159 164 257 223 171 177 171 166 161 154 150 154 156 156 154 154 154 149 149 149 147 149 141 123 125 118 112 119 141 241 227 303 319
129 113 61 340 341 358 44 133 141 137 123 144 161 247 216 154 154 160 150 151 150 146 149 150 148 151 151 153 148 144 144 143 142 132 123 118 114 115 136 188 314 52 26 14
117 108 155 198 229 245 293 303 159 122 140 183 204 195 205 173 153 149 146 152 152 150 150 146 149 151 147 145 144 141 143 141 134 126 122 127 144 154 160 117 40 354 17 40
95 106 167 216 238 266 284 284 217 158 174 178 201 187 200 187 168 159 157 150 146 146 145 148 152 152 147 145 144 140 141 143 137 130 134 160 171 135 114 100 40 4 16 45
73 111 50 346 329 353 345 327 229 200 145 146 142 193 202 162 138 137 147 151 151 155 156 157 154 150 152 155 149 144 144 150 139 138 164 181 148 121 140 189 176 90 44 42
78 107 88 284 312 16 341 298 141 107 121 140 172 202 160 145 147 148 146 143 149 157 160 161 161 160 160 155 149 151 158 154 146 155 165 168 159 153 196 229 192 198 201 120
140 113 128 138 30 272 250 276 104 105 78 108 138 143 151 150 143 134 138 142 145 145 152 157 152 146 145 144 142 141 137 143 148 153 157 164 173 194 215 201 223 238 233 228
147 141 125 122 165 274 304 322 43 112 54 61 126 128 127 117 89 64 103 136 147 147 145 146 148 145 142 141 139 127 122 133 143 163 180 191 192 204 218 229 243 234 222 254
70 104 121 133 153 218 250 286 188 101 78 288 120 128 125 109 115 208 186 124 121 116 123 130 132 126 133 150 137 127 128 126 154 188 193 196 191 194 216 232 240 241 222 243
45 53 117 150 183 246 260 289 53 114 211 214 146 143 140 148 176 178 140 114 114 118 120 120 117 120 139 141 130 128 136 166 198 179 172 189 201 204 212 220 234 262 256 261
160 139 168 140 160 243 277 58 135 195 190 156 147 148 143 143 134 130 130 132 131 125 120 120 118 115 122 128 128 132 165 199 172 139 142 187 226 225 211 204 239 263 254 262
171 184 179 177 204 232 241 159 169 148 136 146 151 158 149 140 141 137 133 133 133 131 130 125 125 120 110 129 138 150 191 188 143 137 178 214 232 243 228 206 238 265 267 247
309 58 115 120 271 280 76 92 103 123 132 142 144 147 142 141 145 136 137 134 132 133 135 128 123 128 151 170 157 176 190 177 154 170 217 237 237 260 274 259 227 242 253 234
262 4 105 218 244 56 49 111 127 113 111 111 117 137 149 145 148 146 144 147 147 142 141 140 146 151 165 164 164 196 198 172 171 202 228 241 230 220 234 264 260 243 245 220
254 205 184 220 226 185 212 199 138 125 130 131 126 122 145 148 149 146 149 154 149 145 139 138 144 152 165 170 211 235 211 177 171 208 242 231 222 225 219 228 305 304 264 277
Height
1509 1516 1521 1516 1514 1515 1518 1523 1524 1518 1511 1515 1520 1521 1520 1521 1522 1523 1525 1525 1526 1527 1528 1529 1529 1529 1529 1530 1530 1530 1530 1530 1530 1530 1529 1529 1528 1528 1528 1528 1528 1528 1528 1527
1514 1517 1508 1505 1507 1510 1515 1521 1521 1515 1509 1514 1522 1524 1521 1521 1522 1523 1523 1524 1525 1526 1528 1528 1528 1528 1529 1529 1530 1530 1530 1530 1530 1529 1529 1528 1528 1528 1528 1528 1528 1528 1527 1527
1517 1510 1501 1503 1507 1512 1514 1517 1517 1518 1513 1514 1522 1532 1528 1523 1523 1524 1524 1524 1525 1525 1526 1527 1527 1528 1528 1529 1529 1529 1529 1529 1529 1529 1528 1528 1527 1527 1527 1527 1527 1527 1527 1526
1509 1502 1501 1504 1506 1507 1516 1505 1506 1511 1523 1532 1527 1547 1533 1525 1524 1523 1524 1524 1524 1525 1526 1527 1527 1527 1528 1528 1529 1529 1529 1529 1528 1528 1527 1527 1526 1526 1526 1526 1526 1526 1526 1525
1508 1500 1501 1505 1502 1500 1505 1500 1504 1510 1522 1533 1531 1542 1538 1526 1527 1524 1523 1523 1523 1524 1525 1526 1526 1527 1528 1528 1528 1529 1529 1528 1528 1527 1527 1526 1526 1526 1526 1526 1526 1526 1525 1525
1500 1495 1496 1498 1496 1495 1497 1504 1510 1519 1530 1547 1537 1542 1542 1529 1523 1521 1520 1520 1521 1523 1524 1525 1527 1527 1528 1529 1528 1528 1528 1527 1527 1526 1526 1526 1525 1525 1525 1525 1525 1525 1525 1524
1507 1498 1493 1493 1499 1498 1501 1521 1542 1545 1554 1552 1536 1540 1537 1519 1515 1516 1517 1517 1519 1521 1522 1523 1525 1526 1527 1527 1527 1527 1526 1526 1526 1525 1525 1525 1525 1525 1525 1525 1525 1524 1524 1524
1519 1517 1497 1493 1497 1503 1504 1517 1542 1554 1557 1551 1539 1541 1528 1514 1513 1513 1513 1515 1518 1519 1521 1522 1523 1524 1525 1526 1525 1525 1526 1525 1525 1525 1524 1524 1524 1524 1524 1524 1525 1524 1524 1523
1516 1515 1493 1490 1489 1494 1505 1513 1516 1535 1543 1552 1546 1534 1523 1514 1514 1514 1514 1515 1516 1518 1520 1521 1523 1523 1525 1525 1524 1525 1525 1524 1524 1524 1524 1523 1524 1524 1524 1524 1524 1524 1523 1523
1501 1511 1497 1491 1489 1491 1496 1504 1521 1535 1550 1558 1549 1541 1537 1523 1517 1514 1514 1515 1516 1517 1519 1521 1522 1523 1524 1524 1524 1525 1525 1524 1524 1523 1523 1523 1523 1523 1523 1523 1523 1523 1523 1522
1495 1510 1506 1498 1499 1501 1501 1508 1518 1532 1536 1552 1558 1545 1515 1515 1512 1512 1513 1513 1515 1517 1519 1520 1521 1522 1523 1524 1524 1524 1524 1524 1523 1523 1523 1523 1523 1523 1522 1522 1522 1522 1521 1521
1494 1508 1516 1506 1493 1490 1495 1503 1514 1532 1536 1539 1545 1539 1505 1507 1508 1509 1511 1513 1515 1516 1518 1519 1521 1522 1522 1523 1523 1523 1523 1523 1523 1523 1523 1523 1522 1522 1521 1521 1520 1520 1520 1520
1492 1508 1525 1521 1511 1499 1498 1499 1505 1515 1529 1537 1543 1533 1506 1506 1507 1509 1510 1512 1514 1516 1517 1519 1520 1520 1521 1521 1522 1523 1523 1523 1523 1523 1522 1522 1521 1521 1520 1520 1519 1519 1518 1518
1487 1505 1518 1526 1520 1507 1503 1500 1500 1511 1528 1531 1527 1521 1512 1508 1507 1508 1509 1511 1514 1516 1517 1518 1519 1520 1520 1521 1521 1521 1522 1522 1522 1522 1521 1521 1520 1519 1519 1519 1518 1517 1517 1516
1488 1505 1503 1503 1498 1497 1498 1498 1498 1503 1509 1518 1515 1514 1509 1505 1506 1507 1509 1511 1513 1515 1516 1517 1518 1519 1519 1520 1521 1521 1521 1521 1521 1521 1520 1520 1519 1518 1518 1517 1517 1516 1515 1515
1491 1501 1502 1503 1496 1496 1498 1496 1495 1497 1499 1504 1507 1510 1503 1503 1505 1507 1509 1510 1512 1513 1515 1516 1517 1518 1519 1520 1520 1520 1520 1520 1520 1520 1519 1518 1518 1517 1516 1516 1515 1514 1514 1513
1496 1502 1511 1515 1504 1501 1511 1500 1497 1498 1496 1499 1507 1505 1501 1504 1505 1506 1508 1510 1511 1512 1514 1516 1516 1517 1518 1519 1519 1519 1520 1520 1519 1519 1518 1517 1517 1516 1515 1515 1514 1513 1512 1512
1495 1504 1513 1517 1514 1523 1511 1493 1491 1494 1497 1495 1497 1498 1499 1501 1505 1507 1508 1509 1511 1512 1514 1515 1516 1516 1517 1518 1519 1519 1519 1519 1518 1517 1517 1516 1516 1515 1514 1513 1512 1512 1511 1510
1486 1499 1512 1522 1524 1518 1503 1494 1493 1498 1504 1497 1497 1499 1501 1503 1506 1509 1510 1510 1511 1512 1513 1514 1515 1516 1517 1517 1518 1518 1518 1517 1517 1516 1516 1515 1515 1514 1513 1512 1511 1511 1510 1509
1487 1492 1507 1517 1521 1525 1508 1492 1489 1495 1510 1500 1497 1500 1502 1504 1511 1512 1510 1510 1511 1512 1513 1514 1515 1515 1516 1516 1516 1516 1516 1516 1515 1515 1514 1514 1513 1513 1512 1511 1510 1510 1509 1508
1499 1502 1509 1515 1518 1513 1497 1490 1489 1508 1510 1499 1497 1499 1501 1503 1506 1508 1509 1510 1511 1512 1513 1513 1514 1514 1515 1515 1515 1515 1515 1514 1514 1514 1513 1513 1512 1512 1511 1510 1509 1509 1508 1507
1504 1508 1511 1515 1519 1516 1492 1490 1496 1499 1495 1496 1497 1497 1499 1501 1504 1506 1508 1509 1510 1511 1512 1513 1513 1513 1514 1514 1514 1514 1513 1513 1513 1512 1512 1511 1511 1510 1510 1509 1508 1507 1506 1505
1499 1500 1502 1505 1507 1495 1491 1489 1490 1491 1492 1494 1495 1497 1498 1501 1504 1505 1506 1508 1509 1510 1511 1512 1512 1512 1513 1513 1513 1512 1512 1512 1511 1511 1510 1510 1509 1509 1508 1507 1506 1505 1504 1503
1494 1491 1495 1498 1495 1492 1491 1490 1490 1491 1492 1493 1494 1496 1497 1499 1502 1503 1505 1507 1508 1509 1510 1510 1511 1511 1511 1511 1511 1511 1511 1510 1510 1509 1509 1508 1508 1507 1506 1506 1504 1503 1502 1500
1494 1492 1495 1496 1492 1491 1490 1490 1491 1491 1492 1493 1495 1496 1497 1499 1501 1502 1504 1505 1507 1508 1509 1509 1509 1509 1510 1510 1509 1509 1509 1509 1508 1507 1507 1506 1505 1505 1504 1503 1502 1501 1500 1499
1492 1492 1494 1495 1489 1489 1490 1490 1491 1491 1492 1493 1495 1497 1498 1499 1500 1501 1503 1504 1505 1506 1507 1508 1508 1508 1508 1508 1507 1507 1507 1506 1506 1505 1504 1504 1503 1502 1502 1501 1500 1499 1498 1497